Weather History for KMKL - February, 2014

Change the Weather History Date:

Wednesday, February 19, 2014

  Actual Average Record
Temperature  
Mean Temperature 63 °F 43 °F  
Max Temperature 70 °F 54 °F 73 °F (1994)
Min Temperature 56 °F 33 °F 5 °F (1958)
Degree Days  
Heating Degree Days 2 22  
Month to date heating degree days 537 454  
Since 1 July heating degree days 3089 2703  
Cooling Degree Days 0 0  
Month to date cooling degree days 0 0  
Year to date cooling degree days 0 0  
Growing Degree Days 12 (Base 50)    
Moisture  
Dew Point 48 °F    
Average Humidity 57    
Maximum Humidity 90    
Minimum Humidity 24    
Precipitation  
Precipitation T in 0.15 in 1.71 in (1996)
Month to date precipitation 4.91 2.85  
Year to date precipitation 7.92 6.92  
Snow  
Snow 0.00 in 0.10 in 0.60 in (1963)
Month to date snowfall 0.5 1.3  
Since 1 July snowfall 0.5 3.9  
Snow Depth 0.00 in    
Sea Level Pressure  
Sea Level Pressure 29.96 in    
Wind  
Wind Speed 7 mph (WNW)    
Max Wind Speed 16 mph    
Max Gust Speed 22 mph    
Visibility 10 miles    
Events Rain    
T = Trace of Precipitation, MM = Missing Value Source: NWS Daily Summary

Daily Weather History Graph

Daily Weather History Graph

Search for Another Location

Airport or City:

Trip Planner

Search our weather history database for the weather conditions in past years. The results will help you decide how hot, cold, wet, or windy it might be!

Date:

Astronomy

Feb. 19, 2014 Rise Set
Actual Time 6:37 AM CST 5:41 PM CST
Civil Twilight 6:11 AM CST 6:07 PM CST
Nautical Twilight 5:42 AM CST 6:37 PM CST
Astronomical Twilight 5:12 AM CST 7:06 PM CST
Moon 10:23 PM CST (2/19) 8:54 AM CST (2/19)
Length of Visible Light 11h 55m
Length of Day
11h 03m
Waning Gibbous, 79% of the Moon is Illuminated
Feb 19
Waning Gibbous
Feb 22
Last Quarter
Mar 1
New
Mar 8
First Quarter
Mar 16
Full

Hourly Weather History & Observations

Time (CST) Temp. Dew Point Humidity Pressure Visibility Wind Dir Wind Speed Gust Speed Precip Events Conditions
12:53 AM 63.0 °F 57.0 °F 81% 29.89 in 10.0 mi SW 13.8 mph - N/A   Scattered Clouds
1:53 AM 63.0 °F 57.9 °F 84% 29.89 in 10.0 mi WSW 12.7 mph - N/A   Overcast
2:53 AM 62.1 °F 57.9 °F 86% 29.90 in 10.0 mi WSW 10.4 mph - N/A   Scattered Clouds
3:11 AM 62.6 °F 57.2 °F 82% 29.91 in 10.0 mi WSW 11.5 mph - N/A   Mostly Cloudy
3:53 AM 62.1 °F 57.9 °F 86% 29.91 in 10.0 mi WSW 9.2 mph - 0.00 in   Mostly Cloudy
4:43 AM 60.8 °F 57.2 °F 88% 29.93 in 10.0 mi WSW 10.4 mph 20.7 mph N/A   Scattered Clouds
4:53 AM 60.1 °F 57.0 °F 90% 29.93 in 10.0 mi WSW 10.4 mph - N/A   Partly Cloudy
5:53 AM 60.1 °F 57.9 °F 93% 29.95 in 10.0 mi West 8.1 mph - N/A   Mostly Cloudy
6:13 AM 60.8 °F 57.2 °F 88% 29.97 in 10.0 mi WNW 9.2 mph - N/A   Overcast
6:38 AM 60.8 °F 57.2 °F 88% 29.97 in 10.0 mi WNW 10.4 mph - N/A   Overcast
6:53 AM 60.1 °F 57.0 °F 90% 29.98 in 9.0 mi WNW 9.2 mph - N/A   Overcast
7:06 AM 59.0 °F 55.4 °F 88% 29.99 in 10.0 mi NW 13.8 mph - N/A   Overcast
7:16 AM 57.2 °F 53.6 °F 88% 30.00 in 10.0 mi NNW 9.2 mph - N/A   Overcast
7:27 AM 57.2 °F 48.2 °F 72% 30.01 in 10.0 mi NW 10.4 mph 19.6 mph N/A   Mostly Cloudy
7:33 AM 55.4 °F 48.2 °F 77% 30.01 in 10.0 mi NW 8.1 mph - N/A   Scattered Clouds
7:53 AM 55.9 °F 48.0 °F 75% 30.02 in 10.0 mi NNW 8.1 mph - N/A   Clear
8:53 AM 57.0 °F 41.0 °F 55% 30.03 in 10.0 mi North 8.1 mph - N/A   Clear
9:53 AM 60.1 °F 39.9 °F 47% 30.05 in 10.0 mi North 11.5 mph - N/A   Clear
10:53 AM 62.1 °F 36.0 °F 38% 30.04 in 10.0 mi East 8.1 mph - N/A   Clear
11:53 AM 64.0 °F 30.9 °F 29% 30.02 in 10.0 mi North 3.5 mph - N/A   Clear
12:53 PM 66.0 °F 28.9 °F 25% 29.99 in 10.0 mi NNE 5.8 mph - N/A   Clear
1:53 PM 66.9 °F 30.0 °F 25% 29.98 in 10.0 mi NNW 3.5 mph - 0.00 in   Mostly Cloudy
2:53 PM 66.9 °F 33.1 °F 28% 29.96 in 10.0 mi ENE 4.6 mph - 0.00 in Rain Light Rain
3:53 PM 68.0 °F 39.0 °F 35% 29.96 in 10.0 mi East 4.6 mph - 0.00 in   Mostly Cloudy
4:53 PM 66.0 °F 39.0 °F 37% 29.94 in 10.0 mi East 4.6 mph - N/A   Overcast
5:53 PM 64.0 °F 41.0 °F 43% 29.94 in 10.0 mi Calm Calm - N/A   Clear
6:53 PM 60.1 °F 41.0 °F 49% 29.94 in 10.0 mi ESE 4.6 mph - N/A   Mostly Cloudy
7:53 PM 64.0 °F 45.0 °F 50% 29.92 in 10.0 mi Variable 3.5 mph - N/A   Overcast
8:53 PM 63.0 °F 48.9 °F 60% 29.91 in 10.0 mi SSE 3.5 mph - N/A   Overcast
9:53 PM 64.0 °F 54.0 °F 70% 29.90 in 10.0 mi Variable 5.8 mph - N/A   Mostly Cloudy
10:53 PM 63.0 °F 55.9 °F 78% 29.88 in 10.0 mi SSE 8.1 mph - N/A   Overcast
11:53 PM 63.0 °F 57.0 °F 81% 29.85 in 10.0 mi SSE 6.9 mph - N/A   Partly Cloudy